Погода в Зензеватке

Россия / Волгоградская область     49°48′16″N   44°32′49″E
темп.,
°C
ветер,
м/с
пор.,
м/с
влажн.,
%
обл.,
%
осадки,
мм/ч
давл.,
гПа
погр.,
м
22 июня, вт
вт2200:00+23всв5135891 0.0 1019226
03:00+22в4106281 0.0 1019207
06:00+23всв5116587 0.0 1019231
09:00+30в68395 0.0 1019497
12:00+35вюв67265 0.0 10182591
15:00+35вюв672435 0.0 10172962
18:00+32всв483729 0.0 1017195
21:00+27в6154290 0.0 1017307
23 июня, ср
ср2300:00+26в5143775 0.0 1018272
03:00+24в51338100 0.0 1018224
06:00+24в4105024 0.0 1018211
09:00+31в5732100 0.0 1018462
12:00+34всв5627100 0.0 10181010
15:00+34всв562759 0.0 10171466
18:00+31св583993 0.0 1017206
21:00+26св4104971 0.0 1017162
24 июня, чт
чт2400:00+24св411538 0.0 1017161
03:00+22св49569 0.0 1017139
06:00+24св496253 0.0 1017213
09:00+30всв564385 0.0 1017558
12:00+34всв5534100 0.0 10171410
15:00+35св4429100 0.0 10162153
18:00+31ссв4846100 0.0 1015199
21:00+26св495988 0.0 1016153
25 июня, пт
пт2500:00+24всв4115570 0.0 1016187
03:00+23всв496363 0.0 1015149
06:00+24св4968100 0.3 1015212
09:00+29всв674960 0.3 1015563
12:00+33всв55395 0.0 10141525
15:00+34св653554 0.0 10142200
18:00+31св57434 0.0 1013370
21:00+26св51157100 0.0 1013194
26 июня, сб
сб2600:00+24всв4126163 0.0 1012252
03:00+22всв3968100 0.0 1013184
06:00+23св386669 0.3 1013213
09:00+30всв674834 0.3 1012874
12:00+33всв553634 0.0 10111646
15:00+34всв563275 0.0 10102333
18:00+31св694219 0.0 1010671
21:00+24св4106317 0.0 1010206